Year,Month,Day,Hour,Minute,Value (Times are PST for temperature in C)
2019,03,21,00,00,11.10
2019,03,21,00,01,11.10
2019,03,21,00,02,11.10
2019,03,21,00,03,11.00
2019,03,21,00,04,11.00
2019,03,21,00,05,10.90
2019,03,21,00,06,10.90
2019,03,21,00,07,10.90
2019,03,21,00,08,10.90
2019,03,21,00,09,10.80
2019,03,21,00,10,10.80
2019,03,21,00,11,10.80
2019,03,21,00,12,10.80
2019,03,21,00,13,10.70
2019,03,21,00,14,10.70
2019,03,21,00,15,10.70
2019,03,21,00,16,10.70
2019,03,21,00,17,10.60
2019,03,21,00,18,10.60
2019,03,21,00,19,10.60
2019,03,21,00,20,10.60
2019,03,21,00,21,10.60
2019,03,21,00,22,10.70
2019,03,21,00,23,10.70
2019,03,21,00,24,10.60
2019,03,21,00,25,10.60
2019,03,21,00,26,10.60
2019,03,21,00,27,10.60
2019,03,21,00,28,10.60
2019,03,21,00,29,10.60
2019,03,21,00,30,10.60
2019,03,21,00,31,10.60
2019,03,21,00,32,10.60
2019,03,21,00,33,10.60
2019,03,21,00,34,10.60
2019,03,21,00,35,10.50
2019,03,21,00,36,10.50
2019,03,21,00,37,10.50
2019,03,21,00,38,10.40
2019,03,21,00,39,10.40
2019,03,21,00,40,10.40
2019,03,21,00,41,10.40
2019,03,21,00,42,10.30
2019,03,21,00,43,10.30
2019,03,21,00,44,10.30
2019,03,21,00,45,10.30
2019,03,21,00,46,10.30
2019,03,21,00,47,10.20
2019,03,21,00,48,10.20
2019,03,21,00,49,10.20
2019,03,21,00,50,10.20
2019,03,21,00,51,10.20
2019,03,21,00,52,10.20
2019,03,21,00,53,10.20
2019,03,21,00,54,10.20
2019,03,21,00,55,10.20
2019,03,21,00,56,10.20
2019,03,21,00,57,10.10
2019,03,21,00,58,10.10
2019,03,21,00,59,10.10
2019,03,21,01,00,10.10
2019,03,21,01,01,10.10
2019,03,21,01,02,10.10
2019,03,21,01,03,10.10
2019,03,21,01,04,10.00
2019,03,21,01,05,10.00
2019,03,21,01,06,10.00
2019,03,21,01,07,10.00
2019,03,21,01,08,10.00
2019,03,21,01,09,9.90
2019,03,21,01,10,9.90
2019,03,21,01,11,9.90
2019,03,21,01,12,9.90
2019,03,21,01,13,9.90
2019,03,21,01,14,9.90
2019,03,21,01,15,9.80
2019,03,21,01,16,9.80
2019,03,21,01,17,9.80
2019,03,21,01,18,9.80
2019,03,21,01,19,9.70
2019,03,21,01,20,9.70
2019,03,21,01,21,9.70
2019,03,21,01,22,9.70
2019,03,21,01,23,9.60
2019,03,21,01,24,9.70
2019,03,21,01,25,9.60
2019,03,21,01,26,9.60
2019,03,21,01,27,9.60
2019,03,21,01,28,9.60
2019,03,21,01,29,9.60
2019,03,21,01,30,9.60
2019,03,21,01,31,9.60
2019,03,21,01,32,9.60
2019,03,21,01,33,9.60
2019,03,21,01,34,9.60
2019,03,21,01,35,9.60
2019,03,21,01,36,9.60
2019,03,21,01,37,9.60
2019,03,21,01,38,9.60
2019,03,21,01,39,9.60
2019,03,21,01,40,9.60
2019,03,21,01,41,9.60
2019,03,21,01,42,9.60
2019,03,21,01,43,9.70
2019,03,21,01,44,9.70
2019,03,21,01,45,9.70
2019,03,21,01,46,9.80
2019,03,21,01,47,9.80
2019,03,21,01,48,9.80
2019,03,21,01,49,9.90
2019,03,21,01,50,9.90
2019,03,21,01,51,9.90
2019,03,21,01,52,9.90
2019,03,21,01,53,10.00
2019,03,21,01,54,9.90
2019,03,21,01,55,9.90
2019,03,21,01,56,9.90
2019,03,21,01,57,9.90
2019,03,21,01,58,9.90
2019,03,21,01,59,9.90
2019,03,21,02,00,9.80
2019,03,21,02,01,9.80
2019,03,21,02,02,9.80
2019,03,21,02,03,9.80
2019,03,21,02,04,9.70
2019,03,21,02,05,9.70
2019,03,21,02,06,9.60
2019,03,21,02,07,9.60
2019,03,21,02,08,9.50
2019,03,21,02,09,9.40
2019,03,21,02,10,9.40
2019,03,21,02,11,9.30
2019,03,21,02,12,9.30
2019,03,21,02,13,9.30
2019,03,21,02,14,9.20
2019,03,21,02,15,9.20
2019,03,21,02,16,9.20
2019,03,21,02,17,9.20
2019,03,21,02,18,9.10
2019,03,21,02,19,9.10
2019,03,21,02,20,9.10
2019,03,21,02,21,9.10
2019,03,21,02,22,9.10
2019,03,21,02,23,9.00
2019,03,21,02,24,9.00
2019,03,21,02,25,9.00
2019,03,21,02,26,9.00
2019,03,21,02,27,8.90
2019,03,21,02,28,8.90
2019,03,21,02,29,8.90
2019,03,21,02,30,8.80
2019,03,21,02,31,8.80
2019,03,21,02,32,8.80
2019,03,21,02,33,8.80
2019,03,21,02,34,8.70
2019,03,21,02,35,8.70
2019,03,21,02,36,8.60
2019,03,21,02,37,8.60
2019,03,21,02,38,8.60
2019,03,21,02,39,8.60
2019,03,21,02,40,8.50
2019,03,21,02,41,8.50
2019,03,21,02,42,8.50
2019,03,21,02,43,8.50
2019,03,21,02,44,8.40
2019,03,21,02,45,8.40
2019,03,21,02,46,8.40
2019,03,21,02,47,8.40
2019,03,21,02,48,8.40
2019,03,21,02,49,8.40
2019,03,21,02,50,8.40
2019,03,21,02,51,8.40
2019,03,21,02,52,8.40
2019,03,21,02,53,8.30
2019,03,21,02,54,8.30
2019,03,21,02,55,8.30
2019,03,21,02,56,8.30
2019,03,21,02,57,8.30
2019,03,21,02,58,8.30
2019,03,21,02,59,8.30
2019,03,21,03,00,8.30
2019,03,21,03,01,8.30
2019,03,21,03,02,8.30
2019,03,21,03,03,8.20
2019,03,21,03,04,8.20
2019,03,21,03,05,8.20
2019,03,21,03,06,8.20
2019,03,21,03,07,8.20
2019,03,21,03,08,8.10
2019,03,21,03,09,8.10
2019,03,21,03,10,8.10
2019,03,21,03,11,8.10
2019,03,21,03,12,8.10
2019,03,21,03,13,8.10
2019,03,21,03,14,8.00
2019,03,21,03,15,8.00
2019,03,21,03,16,7.90
2019,03,21,03,17,7.90
2019,03,21,03,18,7.90
2019,03,21,03,19,7.80
2019,03,21,03,20,7.80
2019,03,21,03,21,7.80
2019,03,21,03,22,7.80
2019,03,21,03,23,7.80
2019,03,21,03,24,7.80
2019,03,21,03,25,7.70
2019,03,21,03,26,7.70
2019,03,21,03,27,7.70
2019,03,21,03,28,7.70
2019,03,21,03,29,7.70
2019,03,21,03,30,7.60
2019,03,21,03,31,7.60
2019,03,21,03,32,7.60
2019,03,21,03,33,7.60
2019,03,21,03,34,7.60
2019,03,21,03,35,7.50
2019,03,21,03,36,7.50
2019,03,21,03,37,7.50
2019,03,21,03,38,7.50
2019,03,21,03,39,7.50
2019,03,21,03,40,7.50
2019,03,21,03,41,7.50
2019,03,21,03,42,7.50
2019,03,21,03,43,7.50
2019,03,21,03,44,7.50
2019,03,21,03,45,7.50
2019,03,21,03,46,7.50
2019,03,21,03,47,7.40
2019,03,21,03,48,7.40
2019,03,21,03,49,7.40
2019,03,21,03,50,7.40
2019,03,21,03,51,7.40
2019,03,21,03,52,7.40
2019,03,21,03,53,7.40
2019,03,21,03,54,7.40
2019,03,21,03,55,7.40
2019,03,21,03,56,7.40
2019,03,21,03,57,7.40
2019,03,21,03,58,7.40
2019,03,21,03,59,7.30
2019,03,21,04,00,7.30
2019,03,21,04,01,7.30
2019,03,21,04,02,7.30
2019,03,21,04,03,7.30
2019,03,21,04,04,7.30
2019,03,21,04,05,7.30
2019,03,21,04,06,7.30
2019,03,21,04,07,7.30
2019,03,21,04,08,7.30
2019,03,21,04,09,7.30
2019,03,21,04,10,7.30
2019,03,21,04,11,7.30
2019,03,21,04,12,7.30
2019,03,21,04,13,7.30
2019,03,21,04,14,7.30
2019,03,21,04,15,7.30
2019,03,21,04,16,7.30
2019,03,21,04,17,7.40
2019,03,21,04,18,7.40
2019,03,21,04,19,7.40
2019,03,21,04,20,7.40
2019,03,21,04,21,7.40
2019,03,21,04,22,7.40
2019,03,21,04,23,7.40
2019,03,21,04,24,7.40
2019,03,21,04,25,7.40
2019,03,21,04,26,7.40
2019,03,21,04,27,7.40
2019,03,21,04,28,7.40
2019,03,21,04,29,7.40
2019,03,21,04,30,7.40
2019,03,21,04,31,7.40
2019,03,21,04,32,7.40
2019,03,21,04,33,7.40
2019,03,21,04,34,7.50
2019,03,21,04,35,7.50
2019,03,21,04,36,7.50
2019,03,21,04,37,7.40
2019,03,21,04,38,7.40
2019,03,21,04,39,7.40
2019,03,21,04,40,7.40
2019,03,21,04,41,7.30
2019,03,21,04,42,7.30
2019,03,21,04,43,7.30
2019,03,21,04,44,7.30
2019,03,21,04,45,7.30
2019,03,21,04,46,7.30
2019,03,21,04,47,7.30
2019,03,21,04,48,7.30
2019,03,21,04,49,7.30
2019,03,21,04,50,7.30
2019,03,21,04,51,7.20
2019,03,21,04,52,7.20
2019,03,21,04,53,7.10
2019,03,21,04,54,7.10
2019,03,21,04,55,7.10
2019,03,21,04,56,7.10
2019,03,21,04,57,7.00
2019,03,21,04,58,7.00
2019,03,21,04,59,7.00
2019,03,21,05,00,7.00
2019,03,21,05,01,7.00
2019,03,21,05,02,7.00
2019,03,21,05,03,7.00
2019,03,21,05,04,7.00
2019,03,21,05,05,7.00
2019,03,21,05,06,7.00
2019,03,21,05,07,6.90
2019,03,21,05,08,6.90
2019,03,21,05,09,6.90
2019,03,21,05,10,6.90
2019,03,21,05,11,6.80
2019,03,21,05,12,6.80
2019,03,21,05,13,6.80
2019,03,21,05,14,6.80
2019,03,21,05,15,6.80
2019,03,21,05,16,6.80
2019,03,21,05,17,6.80
2019,03,21,05,18,6.80
2019,03,21,05,19,6.80
2019,03,21,05,20,6.80
2019,03,21,05,21,6.80
2019,03,21,05,22,6.80
2019,03,21,05,23,6.80
2019,03,21,05,24,6.80
2019,03,21,05,25,6.80
2019,03,21,05,26,6.80
2019,03,21,05,27,6.80
2019,03,21,05,28,6.80
2019,03,21,05,29,6.80
2019,03,21,05,30,6.80
2019,03,21,05,31,6.80
2019,03,21,05,32,6.80
2019,03,21,05,33,6.80
2019,03,21,08,23,6.60
2019,03,21,08,24,6.60
2019,03,21,08,25,6.60
2019,03,21,08,26,6.70
2019,03,21,08,27,6.70
2019,03,21,08,28,6.70
2019,03,21,08,29,6.80
2019,03,21,08,30,6.80
2019,03,21,08,31,6.80
2019,03,21,08,32,6.80
2019,03,21,08,33,6.90
2019,03,21,08,34,6.90
2019,03,21,08,35,6.90
2019,03,21,08,36,6.90
2019,03,21,08,37,7.00
2019,03,21,08,38,7.00
2019,03,21,08,39,7.10
2019,03,21,08,40,7.10
2019,03,21,08,41,7.10
2019,03,21,08,42,7.20
2019,03,21,08,43,7.20
2019,03,21,08,44,7.20
2019,03,21,08,45,7.30
2019,03,21,08,46,7.30
2019,03,21,08,47,7.40
2019,03,21,08,48,7.50
2019,03,21,08,49,7.50
2019,03,21,08,50,7.60
2019,03,21,08,51,7.70
2019,03,21,08,52,7.80
2019,03,21,08,53,7.90
2019,03,21,08,54,8.00
2019,03,21,08,55,8.10
2019,03,21,08,56,8.20
2019,03,21,08,57,8.30
2019,03,21,08,58,8.40
2019,03,21,08,59,8.50
2019,03,21,09,00,8.60
2019,03,21,09,01,8.70
2019,03,21,09,02,8.70
2019,03,21,09,03,8.80
2019,03,21,09,04,8.90
2019,03,21,09,05,9.00
2019,03,21,09,06,9.10
2019,03,21,09,07,9.10
2019,03,21,09,08,9.20
2019,03,21,09,09,9.20
2019,03,21,09,10,9.30
2019,03,21,09,11,9.30
2019,03,21,09,12,9.30
2019,03,21,09,13,9.40
2019,03,21,09,14,9.40
2019,03,21,09,15,9.40
2019,03,21,09,16,9.40
2019,03,21,09,17,9.50
2019,03,21,09,18,9.50
2019,03,21,09,19,9.50
2019,03,21,09,20,9.60
2019,03,21,09,21,9.60
2019,03,21,09,22,9.60
2019,03,21,09,23,9.70
2019,03,21,09,24,9.70
2019,03,21,09,25,9.70
2019,03,21,09,26,9.70
2019,03,21,09,27,9.80
2019,03,21,09,28,9.80
2019,03,21,09,29,9.80
2019,03,21,09,30,9.80
2019,03,21,09,31,9.90
2019,03,21,09,32,9.90
2019,03,21,09,33,9.90
2019,03,21,09,34,10.00
2019,03,21,09,35,10.00
2019,03,21,09,36,10.00
2019,03,21,09,37,10.10
2019,03,21,09,38,10.10
2019,03,21,09,39,10.10
2019,03,21,09,40,10.10
2019,03,21,09,41,10.20
2019,03,21,09,42,10.20
2019,03,21,09,43,10.20
2019,03,21,09,44,10.30
2019,03,21,09,45,10.30
2019,03,21,09,46,10.30
2019,03,21,09,47,10.40
2019,03,21,09,48,10.50
2019,03,21,09,49,10.60
2019,03,21,09,50,10.70
2019,03,21,09,51,10.70
2019,03,21,09,52,10.80
2019,03,21,09,53,10.80
2019,03,21,09,54,10.80
2019,03,21,09,55,10.80
2019,03,21,09,56,10.90
2019,03,21,09,57,10.90
2019,03,21,09,58,10.90
2019,03,21,09,59,11.00
2019,03,21,10,00,11.00
2019,03,21,10,01,11.10
2019,03,21,10,02,11.10
2019,03,21,10,03,11.10
2019,03,21,10,04,11.10
2019,03,21,10,05,11.20
2019,03,21,10,06,11.20
2019,03,21,10,07,11.20
2019,03,21,10,08,11.20
2019,03,21,10,09,11.30
2019,03,21,10,10,11.40
2019,03,21,10,11,11.40
2019,03,21,10,12,11.40
2019,03,21,10,13,11.50
2019,03,21,10,14,11.50
2019,03,21,10,15,11.60
2019,03,21,10,16,11.60
2019,03,21,10,17,11.70
2019,03,21,10,18,11.70
2019,03,21,10,19,11.80
2019,03,21,10,20,11.90
2019,03,21,10,21,11.90
2019,03,21,10,22,12.00
2019,03,21,10,23,12.00
2019,03,21,10,24,12.00
2019,03,21,10,25,12.00
2019,03,21,10,26,12.00
2019,03,21,10,27,11.90
2019,03,21,10,28,11.90
2019,03,21,10,29,11.90
2019,03,21,10,30,11.90
2019,03,21,10,31,11.90
2019,03,21,10,32,11.90
2019,03,21,10,33,11.90
2019,03,21,10,34,11.90
2019,03,21,10,35,11.90
2019,03,21,10,36,11.90
2019,03,21,10,37,11.90
2019,03,21,10,38,11.80
2019,03,21,10,39,11.80
2019,03,21,10,40,11.80
2019,03,21,10,41,11.80
2019,03,21,10,42,11.80
2019,03,21,10,43,11.80
2019,03,21,10,44,11.80
2019,03,21,10,45,11.80
2019,03,21,10,46,11.90
2019,03,21,10,47,11.90
2019,03,21,10,48,11.90
2019,03,21,10,49,11.90
2019,03,21,10,50,11.90
2019,03,21,10,51,11.80
2019,03,21,10,52,11.80
2019,03,21,10,53,11.90
2019,03,21,10,54,11.90
2019,03,21,10,55,11.90
2019,03,21,10,56,11.90
2019,03,21,10,57,12.00
2019,03,21,10,58,12.00
2019,03,21,10,59,12.10
2019,03,21,11,00,12.10
2019,03,21,11,01,12.10
2019,03,21,11,02,12.10
2019,03,21,11,03,12.20
2019,03,21,11,04,12.20
2019,03,21,11,05,12.20
2019,03,21,11,06,12.20
2019,03,21,11,07,12.20
2019,03,21,11,08,12.30
2019,03,21,11,09,12.30
2019,03,21,11,10,12.40
2019,03,21,11,11,12.40
2019,03,21,11,12,12.50
2019,03,21,11,13,12.50
2019,03,21,11,14,12.50
2019,03,21,11,15,12.50
2019,03,21,11,16,12.50
2019,03,21,11,17,12.50
2019,03,21,11,18,12.50
2019,03,21,11,19,12.60
2019,03,21,11,20,12.60
2019,03,21,11,21,12.60
2019,03,21,11,22,12.60
2019,03,21,11,23,12.60
2019,03,21,11,24,12.60
2019,03,21,11,25,12.60
2019,03,21,11,26,12.60
2019,03,21,11,27,12.60
2019,03,21,11,28,12.70
2019,03,21,11,29,12.70
2019,03,21,11,30,12.80
2019,03,21,11,31,12.80
2019,03,21,11,32,12.80
2019,03,21,11,33,12.80
2019,03,21,11,34,12.80
2019,03,21,11,35,12.80
2019,03,21,11,36,12.80
2019,03,21,11,37,12.80
2019,03,21,11,38,12.70
2019,03,21,11,39,12.70
2019,03,21,11,40,12.70
2019,03,21,11,41,12.70
2019,03,21,11,42,12.70
2019,03,21,11,43,12.70
2019,03,21,11,44,12.70
2019,03,21,11,45,12.70
2019,03,21,11,46,12.80
2019,03,21,11,47,12.80
2019,03,21,11,48,12.80
2019,03,21,11,49,12.90
2019,03,21,11,50,12.90
2019,03,21,11,51,13.00
2019,03,21,11,52,13.00
2019,03,21,11,53,13.10
2019,03,21,11,54,13.10
2019,03,21,11,55,13.10
2019,03,21,11,56,13.10
2019,03,21,11,57,13.10
2019,03,21,11,58,13.00
2019,03,21,11,59,13.00
2019,03,21,12,00,12.90
2019,03,21,12,01,12.90
2019,03,21,12,02,12.90
2019,03,21,12,03,12.80
2019,03,21,12,04,12.80
2019,03,21,12,05,12.70
2019,03,21,12,06,12.70
2019,03,21,12,07,12.70
2019,03,21,12,08,12.60
2019,03,21,12,09,12.60
2019,03,21,12,10,12.60
2019,03,21,12,11,12.60
2019,03,21,12,12,12.60
2019,03,21,12,13,12.50
2019,03,21,12,14,12.50
2019,03,21,12,15,12.50
2019,03,21,12,16,12.50
2019,03,21,12,17,12.50
2019,03,21,12,18,12.40
2019,03,21,12,19,12.40
2019,03,21,12,20,12.40
2019,03,21,12,21,12.40
2019,03,21,12,22,12.40
2019,03,21,12,23,12.40
2019,03,21,12,24,12.40
2019,03,21,12,25,12.40
2019,03,21,12,26,12.40
2019,03,21,12,27,12.40
2019,03,21,12,28,12.30
2019,03,21,12,29,12.30
2019,03,21,12,30,12.20
2019,03,21,12,31,12.20
2019,03,21,12,32,12.10
2019,03,21,12,33,12.10
2019,03,21,12,34,12.10
2019,03,21,12,35,12.00
2019,03,21,12,36,12.00
2019,03,21,12,37,12.00
2019,03,21,12,38,12.00
2019,03,21,12,39,11.90
2019,03,21,12,40,11.90
2019,03,21,12,41,11.90
2019,03,21,12,42,11.90
2019,03,21,12,43,11.90
2019,03,21,12,44,11.90
2019,03,21,12,45,12.00
2019,03,21,12,46,11.90
2019,03,21,12,47,11.90
2019,03,21,12,48,12.00
2019,03,21,12,49,12.00
2019,03,21,12,50,12.10
2019,03,21,12,51,12.10
2019,03,21,12,52,12.10
2019,03,21,12,53,12.10
2019,03,21,12,54,12.20
2019,03,21,12,55,12.20
2019,03,21,12,56,12.20
2019,03,21,12,57,12.20
2019,03,21,12,58,12.20
2019,03,21,12,59,12.20
2019,03,21,13,00,12.20
2019,03,21,13,01,12.20
2019,03,21,13,02,12.20
2019,03,21,13,03,12.30
2019,03,21,13,04,12.30
2019,03,21,13,05,12.30
2019,03,21,13,06,12.30
2019,03,21,13,07,12.30
2019,03,21,13,08,12.30
2019,03,21,13,09,12.30
2019,03,21,13,10,12.40
2019,03,21,13,11,12.40
2019,03,21,13,12,12.40
2019,03,21,13,13,12.50
2019,03,21,13,14,12.60
2019,03,21,13,15,12.60
2019,03,21,13,16,12.70
2019,03,21,13,17,12.80
2019,03,21,13,18,12.80
2019,03,21,13,19,12.80
2019,03,21,13,20,12.90
2019,03,21,13,21,13.00
2019,03,21,13,22,13.10
2019,03,21,13,23,13.10
2019,03,21,13,24,13.20
2019,03,21,13,25,13.30
2019,03,21,13,26,13.40
2019,03,21,13,27,13.50
2019,03,21,13,28,13.60
2019,03,21,13,29,13.70
2019,03,21,13,30,13.70
2019,03,21,13,31,13.80
2019,03,21,13,32,13.80
2019,03,21,13,33,13.90
2019,03,21,13,34,14.00
2019,03,21,13,35,14.10
2019,03,21,13,36,14.00
2019,03,21,13,37,13.80
2019,03,21,13,38,13.60
2019,03,21,13,39,13.50
2019,03,21,13,40,13.40
2019,03,21,13,41,13.40
2019,03,21,13,42,13.40
2019,03,21,13,43,13.30
2019,03,21,13,44,13.30
2019,03,21,13,45,13.30
2019,03,21,13,46,13.30
2019,03,21,13,47,13.30
2019,03,21,13,48,13.40
2019,03,21,13,49,13.40
2019,03,21,13,50,13.40
2019,03,21,13,51,13.40
2019,03,21,13,52,13.40
2019,03,21,13,53,13.40
2019,03,21,13,54,13.30
2019,03,21,13,55,13.30
2019,03,21,13,56,13.20
2019,03,21,13,57,13.20
2019,03,21,13,58,13.10
2019,03,21,13,59,13.20
2019,03,21,14,00,13.10
2019,03,21,14,01,13.10
2019,03,21,14,02,13.20
2019,03,21,14,03,13.20
2019,03,21,14,04,13.20
2019,03,21,14,05,13.30
2019,03,21,14,06,13.30
2019,03,21,14,07,13.30
2019,03,21,14,08,13.30
2019,03,21,14,09,13.30
2019,03,21,14,10,13.30
2019,03,21,14,11,13.30
2019,03,21,14,12,13.30
2019,03,21,14,13,13.30
2019,03,21,14,14,13.30
2019,03,21,14,15,13.30
2019,03,21,14,16,13.30
2019,03,21,14,17,13.30
2019,03,21,14,18,13.40
2019,03,21,14,19,13.40
2019,03,21,14,20,13.40
2019,03,21,14,21,13.40
2019,03,21,14,22,13.50
2019,03,21,14,23,13.50
2019,03,21,14,24,13.60
2019,03,21,14,25,13.60
2019,03,21,14,26,13.60
2019,03,21,14,27,13.60
2019,03,21,14,28,13.60
2019,03,21,14,29,13.70
2019,03,21,14,30,13.70
2019,03,21,14,31,13.70
2019,03,21,14,32,13.70
2019,03,21,14,33,13.70
2019,03,21,14,34,13.70
2019,03,21,14,35,13.70
2019,03,21,14,36,13.80
2019,03,21,14,37,13.80
2019,03,21,14,38,13.80
2019,03,21,14,39,13.80
2019,03,21,14,40,13.80
2019,03,21,14,41,13.80
2019,03,21,14,42,13.70
2019,03,21,14,43,13.70
2019,03,21,14,44,13.60
2019,03,21,14,45,13.60
2019,03,21,14,46,13.60
2019,03,21,14,47,13.60
2019,03,21,14,48,13.60
2019,03,21,14,49,13.60
2019,03,21,14,50,13.60
2019,03,21,14,51,13.60
2019,03,21,14,52,13.60
2019,03,21,14,53,13.60
2019,03,21,14,54,13.60
2019,03,21,14,55,13.60
2019,03,21,14,56,13.60
2019,03,21,14,57,13.60
2019,03,21,14,58,13.60
2019,03,21,14,59,13.60
2019,03,21,15,00,13.60
2019,03,21,15,01,13.60
2019,03,21,15,02,13.60
2019,03,21,15,03,13.60
2019,03,21,15,04,13.60
2019,03,21,15,05,13.60
2019,03,21,15,06,13.50
2019,03,21,15,07,13.50
2019,03,21,15,08,13.50
2019,03,21,15,09,13.50
2019,03,21,15,10,13.50
2019,03,21,15,11,13.50
2019,03,21,15,12,13.50
2019,03,21,15,13,13.60
2019,03,21,15,14,13.50
2019,03,21,15,15,13.50
2019,03,21,15,16,13.40
2019,03,21,15,17,13.40
2019,03,21,15,18,13.40
2019,03,21,15,19,13.40
2019,03,21,15,20,13.40
2019,03,21,15,21,13.30
2019,03,21,15,22,13.30
2019,03,21,15,23,13.30
2019,03,21,15,24,13.30
2019,03,21,15,25,13.30
2019,03,21,15,26,13.20
2019,03,21,15,27,13.20
2019,03,21,15,28,13.10
2019,03,21,15,29,13.00
2019,03,21,15,30,12.90
2019,03,21,15,31,12.80
2019,03,21,15,32,12.70
2019,03,21,15,33,12.70
2019,03,21,15,34,12.60
2019,03,21,15,35,12.60
2019,03,21,15,36,12.60
2019,03,21,15,37,12.50
2019,03,21,15,38,12.40
2019,03,21,15,39,12.40
2019,03,21,15,40,12.40
2019,03,21,15,41,12.30
2019,03,21,15,42,12.20
2019,03,21,15,43,12.20
2019,03,21,15,44,12.10
2019,03,21,15,45,12.00
2019,03,21,15,46,11.90
2019,03,21,15,47,11.80
2019,03,21,15,48,11.70
2019,03,21,15,49,11.70
2019,03,21,15,50,11.70
2019,03,21,15,51,11.70
2019,03,21,15,52,11.80
2019,03,21,15,53,11.80
2019,03,21,15,54,11.80
2019,03,21,15,55,11.80
2019,03,21,15,56,11.80
2019,03,21,15,57,11.80
2019,03,21,15,58,11.80
2019,03,21,15,59,11.70
2019,03,21,16,00,11.70
2019,03,21,16,01,11.70
2019,03,21,16,02,11.80
2019,03,21,16,03,11.80
2019,03,21,16,04,11.80
2019,03,21,16,05,11.90
2019,03,21,16,06,11.90
2019,03,21,16,07,12.00
2019,03,21,16,08,12.00
2019,03,21,16,09,12.10
2019,03,21,16,10,12.10
2019,03,21,16,11,12.10
2019,03,21,16,12,12.10
2019,03,21,16,13,12.00
2019,03,21,16,14,12.00
2019,03,21,16,15,12.00
2019,03,21,16,16,11.90
2019,03,21,16,17,11.90
2019,03,21,16,18,11.90
2019,03,21,16,19,11.80
2019,03,21,16,20,11.80
2019,03,21,16,21,11.80
2019,03,21,16,22,11.80
2019,03,21,16,23,11.80
2019,03,21,16,24,11.70
2019,03,21,16,25,11.80
2019,03,21,16,26,11.80
2019,03,21,16,27,11.80
2019,03,21,16,28,11.80
2019,03,21,16,29,11.80
2019,03,21,16,30,11.80
2019,03,21,16,31,11.80
2019,03,21,16,32,11.80
2019,03,21,16,33,11.80
2019,03,21,16,34,11.90
2019,03,21,16,35,11.90
2019,03,21,16,36,12.00
2019,03,21,16,37,12.00
2019,03,21,16,38,12.10
2019,03,21,16,39,12.20
2019,03,21,16,40,12.20
2019,03,21,16,41,12.10
2019,03,21,16,42,12.10
2019,03,21,16,43,12.00
2019,03,21,16,44,11.90
2019,03,21,16,45,11.80
2019,03,21,16,46,11.80
2019,03,21,16,47,11.80
2019,03,21,16,48,11.70
2019,03,21,16,49,11.70
2019,03,21,16,50,11.70
2019,03,21,16,51,11.80
2019,03,21,16,52,11.80
2019,03,21,16,53,11.90
2019,03,21,16,54,11.90
2019,03,21,16,55,12.00
2019,03,21,16,56,12.10
2019,03,21,16,57,12.20
2019,03,21,16,58,12.30
2019,03,21,16,59,12.40
2019,03,21,17,00,12.50
2019,03,21,17,01,12.60
2019,03,21,17,02,12.70
2019,03,21,17,03,12.80
2019,03,21,17,04,13.00
2019,03,21,17,05,13.10
2019,03,21,17,06,13.30
2019,03,21,17,07,13.40
2019,03,21,17,08,13.60
2019,03,21,17,09,13.80
2019,03,21,17,10,13.90
2019,03,21,17,11,14.10
2019,03,21,17,12,14.30
2019,03,21,17,13,14.40
2019,03,21,17,14,14.60
2019,03,21,17,15,14.70
2019,03,21,17,16,14.80
2019,03,21,17,17,14.90
2019,03,21,17,18,15.00
2019,03,21,17,19,15.10
2019,03,21,17,20,15.10
2019,03,21,17,21,15.20
2019,03,21,17,22,15.20
2019,03,21,17,23,15.20
2019,03,21,17,24,15.20
2019,03,21,17,25,15.20
2019,03,21,17,26,15.20
2019,03,21,17,27,15.20
2019,03,21,17,28,15.20
2019,03,21,17,29,15.20
2019,03,21,17,30,15.20
2019,03,21,17,31,15.20
2019,03,21,17,32,15.20
2019,03,21,17,33,15.20
2019,03,21,17,34,15.20
2019,03,21,17,35,15.20
2019,03,21,17,36,15.20
2019,03,21,17,37,15.10
2019,03,21,17,38,15.10
2019,03,21,17,39,15.10
2019,03,21,17,40,15.10
2019,03,21,17,41,15.10
2019,03,21,17,42,15.10
2019,03,21,17,43,15.00
2019,03,21,17,44,15.00
2019,03,21,17,45,15.00
2019,03,21,17,46,14.90
2019,03,21,17,47,14.90
2019,03,21,17,48,14.80
2019,03,21,17,49,14.80
2019,03,21,17,50,14.80
2019,03,21,17,51,14.70
2019,03,21,17,52,14.70
2019,03,21,17,53,14.70
2019,03,21,17,54,14.60
2019,03,21,17,55,14.60
2019,03,21,17,56,14.60
2019,03,21,17,57,14.50
2019,03,21,17,58,14.50
2019,03,21,17,59,14.40
2019,03,21,18,00,14.40
2019,03,21,18,01,14.40
2019,03,21,18,02,14.30
2019,03,21,18,03,14.30
2019,03,21,18,04,14.30
2019,03,21,18,05,14.20
2019,03,21,18,06,14.20
2019,03,21,18,07,14.10
2019,03,21,18,08,14.10
2019,03,21,18,09,14.00
2019,03,21,18,10,14.00
2019,03,21,18,11,14.00
2019,03,21,18,12,13.90
2019,03,21,18,13,13.90
2019,03,21,18,14,13.90
2019,03,21,18,15,13.80
2019,03,21,18,16,13.80
2019,03,21,18,17,13.80
2019,03,21,18,18,13.80
2019,03,21,18,19,13.80
2019,03,21,18,20,13.80
2019,03,21,18,21,13.80
2019,03,21,18,22,13.80
2019,03,21,18,23,13.80
2019,03,21,18,24,13.80
2019,03,21,18,25,13.80
2019,03,21,18,26,13.70
2019,03,21,18,27,13.70
2019,03,21,18,28,13.70
2019,03,21,18,29,13.70
2019,03,21,18,30,13.70
2019,03,21,18,31,13.70
2019,03,21,18,32,13.60
2019,03,21,18,33,13.60
2019,03,21,18,34,13.60
2019,03,21,18,35,13.60
2019,03,21,18,36,13.60
2019,03,21,18,37,13.60
2019,03,21,18,38,13.60
2019,03,21,18,39,13.60
2019,03,21,18,40,13.60
2019,03,21,18,41,13.60
2019,03,21,18,42,13.50
2019,03,21,18,43,13.50
2019,03,21,18,44,13.50
2019,03,21,18,45,13.50
2019,03,21,18,46,13.50
2019,03,21,18,47,13.50
2019,03,21,18,48,13.50
2019,03,21,18,49,13.50
2019,03,21,18,50,13.50
2019,03,21,18,51,13.50
2019,03,21,18,52,13.50
2019,03,21,18,53,13.40
2019,03,21,18,54,13.50
2019,03,21,18,55,13.40
2019,03,21,18,56,13.40
2019,03,21,18,57,13.40
2019,03,21,18,58,13.40
2019,03,21,18,59,13.40
2019,03,21,19,00,13.40
2019,03,21,19,01,13.40
2019,03,21,19,02,13.40
2019,03,21,19,03,13.40
2019,03,21,19,04,13.40
2019,03,21,19,05,13.40
2019,03,21,19,06,13.40
2019,03,21,19,07,13.30
2019,03,21,19,08,13.30
2019,03,21,19,09,13.30
2019,03,21,19,10,13.30
2019,03,21,19,11,13.30
2019,03,21,19,12,13.30
2019,03,21,19,13,13.30
2019,03,21,19,14,13.30
2019,03,21,19,15,13.30
2019,03,21,19,16,13.30
2019,03,21,19,17,13.30
2019,03,21,19,18,13.20
2019,03,21,19,19,13.20
2019,03,21,19,20,13.20
2019,03,21,19,21,13.20
2019,03,21,19,22,13.20
2019,03,21,19,23,13.20
2019,03,21,19,24,13.20
2019,03,21,19,25,13.10
2019,03,21,19,26,13.10
2019,03,21,19,27,13.10
2019,03,21,19,28,13.10
2019,03,21,19,29,13.10
2019,03,21,19,30,13.10
2019,03,21,19,31,13.10
2019,03,21,19,32,13.10
2019,03,21,19,33,13.00
2019,03,21,19,34,13.00
2019,03,21,19,35,13.00
2019,03,21,19,36,13.00
2019,03,21,19,37,13.00
2019,03,21,19,38,13.00
2019,03,21,19,39,13.00
2019,03,21,19,40,13.00
2019,03,21,19,41,12.90
2019,03,21,19,42,12.90
2019,03,21,19,43,12.90
2019,03,21,19,44,13.00
2019,03,21,19,45,12.90
2019,03,21,19,46,12.90
2019,03,21,19,47,12.90
2019,03,21,19,48,12.90
2019,03,21,19,49,12.90
2019,03,21,19,50,12.90
2019,03,21,19,51,12.90
2019,03,21,19,52,12.90
2019,03,21,19,53,13.00
2019,03,21,19,54,13.00
2019,03,21,19,55,13.00
2019,03,21,19,56,13.00
2019,03,21,19,57,13.00
2019,03,21,19,58,13.00
2019,03,21,19,59,13.00
2019,03,21,20,00,13.00
2019,03,21,20,01,13.00
2019,03,21,20,02,13.00
2019,03,21,20,03,13.00
2019,03,21,20,04,13.00
2019,03,21,20,05,13.00
2019,03,21,20,06,13.00
2019,03,21,20,07,13.00
2019,03,21,20,08,13.00
2019,03,21,20,09,13.10
2019,03,21,20,10,13.10
2019,03,21,20,11,13.10
2019,03,21,20,12,13.10
2019,03,21,20,13,13.10
2019,03,21,20,14,13.10
2019,03,21,20,15,13.10
2019,03,21,20,16,13.10
2019,03,21,20,17,13.10
2019,03,21,20,18,13.10
2019,03,21,20,19,13.10
2019,03,21,20,20,13.10
2019,03,21,20,21,13.10
2019,03,21,20,22,13.10
2019,03,21,20,23,13.10